CZ-2D DEB, 35272

Orbit data source: Space-Track

CZ-2D DEB, 35272 is space debris in SSO originally from a launch on Tue, 05 Jul 2005 UTC launched from the Jiuquan Satellite Launch Center, China (JSC). Debris objects in space refer to the collection of defunct objects orbiting the Earth. Examples of debris include non-operational satellites, rocket bodies, and fragments generated from explosions, collisions, or faulty payload assembly.

Loading next visibility...
CZ-2D DEB details
Identifier
35272, 2005-024L
Orbit
SSO
Last TLE update1 day ago
Origin
Flag of CNCASC (CN / PRC)
ManufacturerUnknown
MissionSpacecraft
Bus & MotorUnknown
MassUnknown
Launch date (UTC)
2005-07-05 (19 years ago)
Launch vehicleUnknown
Launch site
Jiuquan Satellite Launch Center, China (JSC)
Object type
Payload
Rocket body
Debris
Shape & HBRUnknown
Radar Cross SectionSmall (<0.1 m²)

Expand to show TLE details & history

TLE from 1 day ago
0 CZ-2D DEB
1 35272U 05024L   24360.33615375  .00031493  00000-0  75275-3 0  9997
2 35272  97.2234  19.7818 0005862 332.0653  28.0278 15.41418502 55395
Epoch: 2024-12-25T08:04Z
Definitive object data (Epoch: 2024-12-25T08:04:03.683Z)
Latitude-0.00013°
Longitude164.43511°
Altitude441.517 km
Speed7.649 km/s
True Right ascension01h 19m 07s
True Declination0° 00' 00"
Sunlit
Object was in daylight at TLE epoch
Visualization TLE readout
Latitude73.91049°
Longitude11.52128°
Altitude457.32 km
Speed7.643 km/s
Apparent Right ascension22h 30m 13s
Apparent Declination32° 26' 21"
Sunlit
Object is in daylight
Visualization observer readout
Local Sidereal Time11:55:19
Azimuth18.483° NNE
Elevation-15.011°
Doppler factor1
Orbital elements
Apogee altitude442.848 km
Perigee altitude434.855 km
Semi-major axis6,816.989 km
Eccentricity0.0005862
Inclination97.2234°
RAAN19.7818°
Arg. of periapsis332.0653°
True anomaly28.05939°
Mean anomaly28.0278°
Eccentric anomaly28.04359°
Mean motion3.85615 °/min
BSTAR0.00075275
Orbital period93.36 mins
Loading maneuver chart data...
Loading historical data...
Loading historical data...
Loading historical data...
Loading historical data...
Loading historical data...
Loading historical data...
Loading historical data...

CZ-2D DEB Visibility forecast

Observer location: undefined°, undefined

Span
Click to sort rows by Start time (UTC) header in descending order
Start Az.
Max El. time (UTC)
Max El. Az.
Max El.
End time (UTC)
End Az.
6 mins2024-12-26 14:13:47.132Z20.288° NNE2024-12-26 14:16:47.132Z129.579° SE40.758°2024-12-26 14:19:47.132Z182.683° SSW
|